SCP
0 0 0 0 0 0 0 0 0 0 0 0 0 0 1 1 1 1 1 1 1 1 1 2 2 2 2 2 2 2 2 1 1 1 1 1 1 1 0 0 0 0 0 0
0 0 0 0 0 0 0 0 0 0 0 0 0 0 0 1 1 1 1 1 2 1 1 1 2 2 2 2 3 2 1 1 1 1 1 1 1 1 0 0 0 0 0 0
0 0 0 0 0 0 0 0 0 0 0 0 0 0 0 0 1 1 1 2 2 2 1 1 2 3 2 2 3 3 2 1 1 2 2 1 1 1 1 0 0 0 0 0
0 0 0 0 0 0 0 0 0 0 0 0 0 0 0 0 0 1 1 1 2 3 2 1 2 3 2 2 2 3 3 2 2 2 2 1 1 1 1 1 0 0 0 0
0 0 0 0 0 0 0 0 0 0 0 0 0 0 0 0 1 1 1 1 2 2 2 1 2 2 2 2 2 2 2 2 2 2 1 1 1 1 1 1 1 1 0 0
0 0 0 0 0 0 0 0 0 0 0 0 0 0 0 1 1 1 1 1 2 2 1 1 1 2 2 1 1 1 1 2 2 2 1 1 1 1 1 1 1 1 1 0
0 0 0 0 0 0 0 0 0 0 0 0 0 0 1 1 1 1 1 1 2 2 1 1 1 1 1 1 1 1 1 1 1 1 1 1 1 1 1 1 1 1 1 1
0 0 0 0 0 0 0 0 0 0 0 0 0 1 1 1 1 1 1 1 1 2 2 2 2 2 1 1 1 1 1 1 1 1 1 1 1 1 1 1 1 1 1 1
0 0 0 0 0 0 0 0 0 0 0 0 0 1 1 1 1 0 0 1 2 2 3 3 2 2 1 1 1 1 1 1 1 1 1 1 1 1 1 1 1 1 1 1
0 0 0 0 0 0 0 0 0 0 0 0 0 1 1 1 1 0 0 1 2 3 3 3 3 2 2 1 2 2 2 2 2 2 2 1 1 2 2 2 2 2 1 1
0 0 0 0 0 0 0 0 0 0 0 0 0 0 1 1 1 1 0 1 2 3 4 4 4 3 2 2 2 2 2 2 2 2 2 2 2 2 2 2 1 1 2 2
0 0 0 0 0 0 0 0 0 0 0 0 0 0 0 0 0 1 0 0 1 2 3 4 4 3 2 1 1 2 2 2 2 2 2 2 2 2 2 2 1 1 1 1
0 0 0 0 0 0 0 0 0 0 0 0 0 0 0 1 1 1 0 0 1 2 2 3 3 3 2 1 1 2 2 2 2 3 3 3 3 3 3 3 2 2 1 1
0 0 0 0 0 0 0 0 0 0 0 0 0 0 1 1 1 0 0 0 1 1 1 2 2 2 2 1 1 1 2 2 2 3 3 4 3 3 3 3 3 2 2 2
0 0 0 0 0 0 0 0 0 0 0 0 0 0 0 1 1 0 0 0 1 1 1 1 1 1 1 1 1 1 1 2 2 2 3 4 4 4 3 3 3 3 3 2
0 0 0 0 0 0 0 0 0 0 0 0 0 0 0 0 1 0 0 0 1 1 1 1 1 1 1 1 1 1 1 2 2 2 3 4 5 4 4 3 3 3 3 3
0 0 0 0 0 0 0 0 0 0 0 0 0 0 0 0 0 0 0 0 0 0 1 1 1 1 1 1 1 1 1 1 1 1 2 4 5 4 4 3 3 3 3 3
0 0 0 0 0 0 0 0 0 0 0 0 0 0 0 0 0 0 0 0 0 0 0 1 1 1 1 1 1 1 1 1 1 1 2 3 4 4 4 3 3 3 3 3
0 0 0 0 0 0 0 0 0 0 0 0 0 0 0 0 0 0 0 0 0 0 0 0 1 1 1 1 1 1 2 2 1 1 1 3 4 4 4 3 3 3 3 3
0 0 0 0 0 0 0 0 0 0 0 0 0 0 0 0 0 0 0 0 0 0 0 0 0 1 1 1 1 2 2 2 2 1 1 2 3 4 4 3 3 3 3 3
0 0 0 0 0 0 0 0 0 0 0 0 0 0 0 0 0 0 0 0 0 0 0 0 0 1 1 1 1 2 2 2 2 2 2 2 3 4 4 4 4 4 4 4
0 0 0 0 0 0 0 0 0 0 0 0 0 0 0 0 0 0 0 0 0 0 0 0 1 1 1 1 1 2 2 2 2 2 2 2 3 3 3 3 4 3 3 3
0 0 0 0 0 0 0 0 0 0 0 0 0 0 0 0 0 0 0 0 0 0 1 1 1 1 1 1 1 1 2 2 2 2 2 2 3 3 3 3 3 2 2 2
0 0 0 0 0 0 0 0 0 0 0 0 0 0 0 0 0 0 0 0 0 0 0 1 1 1 1 1 1 1 2 2 2 2 2 2 3 2 2 2 2 1 1 1
0 0 0 0 0 0 0 0 0 0 0 0 0 0 0 0 0 0 0 0 0 0 0 0 1 1 1 0 1 1 2 2 3 3 2 2 2 2 2 2 1 1 1 1
0 0 0 0 0 0 0 0 0 0 0 0 0 0 0 0 0 0 0 0 0 0 0 0 0 0 0 0 1 1 1 2 2 2 2 2 2 3 3 2 1 1 1 1
Wind_Speed
5 5 3 2 3 5 4 3 4 0 3 2 3 2 3 5 4 4 4 4 4 3 4 5 6 5 4 3 3 4 3 3 3 2 2 2 1 1 2 1 2 1 1 2
5 4 2 2 3 5 5 4 3 1 1 2 3 3 3 5 6 5 4 4 4 4 4 5 5 4 4 4 3 4 3 3 4 2 2 2 2 1 1 1 2 2 1 1
4 0 1 4 4 6 5 3 3 3 3 5 5 3 5 5 5 4 3 3 4 4 4 5 5 4 4 3 3 3 3 3 4 4 3 2 2 1 1 1 1 1 1 2
4 2 3 5 4 5 4 3 4 5 4 3 4 2 5 6 6 5 4 3 4 5 4 4 5 5 3 3 3 3 2 4 4 3 3 3 2 1 1 1 1 0 1 2
4 2 4 5 4 4 4 5 7 8 6 6 7 4 4 5 5 5 5 4 4 5 5 4 4 5 4 4 3 3 3 3 4 3 3 2 2 1 1 1 1 1 1 1
5 3 4 4 4 4 5 8 9 8 6 7 7 4 3 3 4 4 4 4 4 4 5 5 5 5 4 4 3 3 3 3 3 3 2 2 3 2 2 1 1 1 1 1
7 7 5 3 5 5 5 5 3 3 5 4 3 2 4 5 5 4 4 4 4 4 4 4 5 5 4 4 3 2 2 3 2 3 3 3 3 2 2 2 1 1 1 1
6 5 5 3 3 4 4 5 3 4 4 3 3 1 5 6 6 5 5 4 4 4 4 4 4 4 4 4 4 3 2 2 2 2 2 2 3 2 1 2 1 1 1 1
5 1 3 3 3 4 5 5 5 6 9 7 1 4 5 5 6 5 5 4 4 4 4 4 3 4 4 4 4 3 3 2 2 2 2 2 3 2 1 1 2 1 1 1
6 5 3 4 4 6 7 7 4 3 4 5 3 2 3 6 5 5 4 4 3 4 4 4 2 2 3 3 3 3 3 3 2 2 2 2 2 2 2 1 1 2 2 1
7 6 5 5 5 5 6 6 4 4 5 4 4 2 4 5 4 4 3 3 3 3 3 3 2 1 2 2 3 3 3 2 2 2 1 1 2 2 1 1 1 2 2 2
5 5 6 5 4 4 4 5 5 4 5 4 4 1 4 5 5 4 3 3 3 2 2 3 3 2 2 2 3 3 2 2 2 2 2 1 1 1 2 1 1 1 1 1
5 5 5 3 4 5 5 5 5 6 6 5 5 1 3 4 3 3 3 2 2 2 1 2 2 2 2 2 2 2 3 3 3 2 2 2 2 2 2 2 1 1 1 1
4 7 7 6 5 4 5 6 6 6 5 7 6 4 1 2 3 2 2 2 2 2 1 1 1 1 1 1 2 2 2 3 3 3 2 2 2 2 2 2 2 1 1 1
5 8 10 9 8 8 8 8 8 9 8 9 8 6 3 1 2 2 1 2 2 1 1 1 0 0 1 1 1 1 2 3 3 3 3 3 2 2 2 1 1 1 1 1
6 8 10 11 9 9 11 11 10 10 9 9 8 7 3 3 3 2 2 2 1 1 2 1 1 1 1 1 2 1 1 2 2 3 3 3 2 2 2 1 1 1 1 1
5 8 9 9 9 9 10 8 8 8 6 6 6 3 3 3 2 2 2 1 1 1 1 2 1 2 2 2 1 2 2 2 2 2 2 3 3 2 2 2 2 2 1 1
8 8 6 7 9 10 2 1 2 4 4 3 2 2 3 3 2 2 2 2 2 2 1 1 2 2 3 2 1 1 2 2 2 2 2 2 3 3 2 2 2 2 2 2
8 7 6 5 8 7 4 2 1 3 4 2 2 2 3 2 1 1 3 3 3 3 2 2 2 2 3 2 1 2 2 2 2 2 2 2 2 2 3 3 3 2 2 2
6 7 6 6 7 6 1 2 3 3 3 2 2 3 3 3 2 1 2 3 3 3 3 2 2 2 3 2 2 2 2 2 2 2 2 2 3 3 3 3 3 2 2 2
5 6 8 8 8 4 2 2 1 2 2 3 3 3 2 3 3 2 3 3 2 2 3 2 2 3 3 2 2 2 2 2 2 2 2 3 3 3 3 3 3 2 2 3
5 4 6 6 7 4 3 2 2 4 4 4 4 4 4 4 4 3 3 3 3 2 3 2 2 3 3 2 2 2 2 1 1 2 2 2 3 3 3 3 3 3 3 3
5 3 2 2 1 2 2 3 4 4 4 5 4 5 5 4 3 3 4 3 3 3 2 2 2 2 2 2 2 2 1 1 1 2 2 2 2 2 3 4 3 3 3 2
4 3 4 5 3 1 2 3 3 4 4 5 5 4 5 5 4 3 3 3 3 3 2 2 2 2 2 3 2 2 1 1 1 2 2 2 2 2 2 2 3 3 3 3
4 4 6 7 5 4 2 2 3 3 4 5 5 5 5 5 5 4 3 3 3 3 2 2 2 2 3 3 2 1 0 0 1 2 2 2 2 2 2 2 2 3 3 4
7 7 7 6 4 4 3 2 3 4 4 4 5 5 5 5 5 4 3 3 3 3 3 2 3 2 3 2 2 2 1 1 2 2 2 1 1 2 2 2 1 0 1 4
Wind_Direction
224 238 253 284 297 299 307 303 298 277 141 234 240 208 169 158 171 192 194 184 186 161 152 134 131 130 131 127 122 121 127 130 114 109 107 101 92 80 63 60 79 79 86 108
228 238 281 330 295 278 273 266 281 309 152 257 240 223 186 164 175 188 182 180 167 147 144 132 138 136 132 126 123 126 137 136 122 121 118 121 113 108 108 63 62 33 45 82
257 14 267 264 266 280 278 293 310 319 292 244 231 209 171 155 152 151 159 165 145 146 141 139 138 127 131 135 138 131 141 137 130 130 112 108 95 74 79 73 68 14 83 85
252 242 249 258 266 288 297 335 307 284 275 261 234 227 166 163 156 158 153 138 132 134 140 138 133 131 131 129 134 127 126 118 114 117 119 133 140 138 141 132 126 65 89 98
245 242 259 265 282 290 305 309 280 269 270 269 250 244 158 153 155 155 150 147 138 139 132 138 139 140 140 128 120 120 119 115 123 123 114 134 123 132 130 123 136 102 80 88
251 240 263 283 285 274 284 276 261 243 252 252 234 237 151 149 132 126 137 147 137 133 134 138 137 136 129 120 118 120 124 110 118 130 141 147 123 131 121 119 143 148 147 136
223 215 206 240 263 238 256 282 282 227 218 239 213 220 110 108 108 119 125 137 134 129 126 130 128 126 128 127 129 131 126 129 147 163 169 159 151 156 164 162 180 169 153 160
249 218 178 182 257 292 271 266 289 303 294 292 225 157 108 108 107 107 111 120 131 128 114 116 130 137 136 139 146 152 156 160 166 172 178 158 157 162 176 177 172 161 167 179
299 272 131 165 256 279 280 272 282 293 290 284 217 111 127 121 115 113 108 108 119 121 117 116 134 150 144 147 157 165 173 182 178 185 168 152 158 157 173 174 165 150 176 164
293 287 223 179 228 234 260 291 293 289 302 294 282 178 154 144 136 125 122 117 105 111 109 111 113 141 147 149 157 165 171 185 174 166 163 154 158 160 157 167 152 146 163 155
286 275 244 206 219 247 238 251 271 280 275 292 303 18 76 125 124 123 118 123 117 106 113 110 110 138 141 149 152 155 164 171 169 158 158 147 152 150 148 170 159 160 154 159
279 285 270 236 217 239 272 280 279 277 287 287 294 9 88 93 85 87 77 72 92 93 111 126 128 149 158 165 165 167 164 164 164 162 160 157 162 165 177 160 153 151 147 164
320 277 273 234 195 201 237 258 278 291 289 283 280 271 99 89 77 74 73 61 77 73 62 112 137 158 176 189 182 181 180 177 171 167 171 181 187 192 179 154 141 143 154 153
287 266 269 279 301 299 266 261 266 271 273 283 283 284 225 108 98 74 65 61 56 62 71 69 132 168 182 208 202 192 200 184 180 172 178 187 203 176 152 149 151 155 165 182
258 267 276 280 284 285 280 273 263 260 267 276 286 293 311 16 68 59 59 70 57 33 46 67 275 207 188 222 225 211 212 195 190 178 185 195 173 135 132 143 155 142 174 198
253 270 279 276 270 269 267 264 261 260 267 273 285 299 347 26 52 33 35 48 32 19 2 2 327 289 246 236 221 202 223 213 194 181 181 168 155 141 141 155 148 141 196 168
261 274 279 277 277 271 259 259 258 260 267 272 281 314 3 17 19 17 27 27 12 17 355 331 335 311 274 253 233 200 208 213 210 189 165 157 157 149 155 166 152 157 181 157
265 273 272 275 272 255 259 13 308 285 286 287 315 19 13 4 5 33 40 35 9 356 340 328 312 301 295 284 267 232 214 207 202 189 175 163 161 159 165 172 169 168 168 153
243 254 264 264 267 268 261 277 284 291 293 327 329 3 21 355 331 64 42 24 356 341 342 330 315 315 304 284 266 242 225 204 199 198 189 176 163 172 182 182 183 177 167 177
232 240 249 259 263 266 352 30 14 308 261 42 20 12 3 334 308 335 15 8 352 344 341 341 330 315 306 295 280 267 239 203 200 207 199 192 182 180 191 189 187 177 170 193
213 226 235 252 259 265 21 2 336 259 3 33 22 8 346 327 348 3 352 350 343 341 338 341 329 317 307 291 276 269 254 215 198 201 215 202 187 185 187 181 179 172 177 181
242 241 234 242 247 253 55 3 342 8 20 11 10 5 356 357 9 0 343 338 340 343 334 340 346 333 321 290 264 267 265 232 179 181 208 210 193 193 181 168 178 182 184 178
241 253 278 269 270 32 25 11 10 6 351 355 0 3 352 341 341 339 334 333 337 332 330 337 337 318 314 308 284 265 254 210 193 192 201 206 199 192 177 171 174 182 183 180
262 273 270 273 259 251 313 329 344 344 336 345 351 345 332 323 324 327 326 330 335 332 329 325 321 322 324 323 306 280 237 187 215 202 204 199 196 192 182 174 178 183 185 186
284 279 266 267 274 274 261 290 315 322 324 329 333 330 326 321 319 320 319 327 332 328 320 311 304 307 316 315 310 299 273 222 241 219 211 198 197 192 189 185 193 194 194 192
261 260 255 260 271 275 286 320 310 298 301 310 317 324 325 320 316 318 319 325 319 314 310 311 315 318 310 308 311 313 304 258 247 228 207 195 198 190 185 175 178 215 204 203